Regional Weather Roundup
Issued by NWS

Home | Current Version | Previous Version | Text Only | Print | Product List | Glossary On
Versions: 1 2 3 4 5 6 7 8 9 10 11 12 13 14 15 16 17 18 19 20 21 22 23 24 25 26 27 28 29 30 31 32 33 34 35 36 37 38 39 40 41 42 43 44 45 46 47 48 49 50
000
ASUS44 KBMX 061910
RWRAL

ALABAMA REGIONAL WEATHER ROUNDUP
NATIONAL WEATHER SERVICE BIRMINGHAM AL
200 PM CDT FRI MAY 06 2016

NOTE: "FAIR" INDICATES FEW OR NO CLOUDS BELOW 12,000 FEET
WITH NO SIGNIFICANT WEATHER AND/OR OBSTRUCTIONS TO VISIBILITY.

THE REMARK "TC" DENOTES TEMPERATURE IN DEGREES CELSIUS.

ALZ001>011-014-016>018-020-062000-
NORTH ALABAMA

CITY           SKY/WX    TMP DP  RH WIND       PRES   REMARKS
MUSCLE SHOALS  MOSUNNY   73  39  29 N9        30.04S
HUNTSVILLE     PTSUNNY   74  40  29 MISG      30.00F
DECATUR        PTSUNNY   70  40  33 N9        30.02F
HALEYVILLE     FAIR      70  44  39 N10       30.05F
GADSDEN        MOSUNNY   69  44  40 N12G22    29.99F
$$

ALZ012-013-022-023-030>036-040>044-062000-
WEST CENTRAL ALABAMA

CITY           SKY/WX    TMP DP  RH WIND       PRES   REMARKS
TUSCALOOSA     MOSUNNY   73  43  33 N10       30.02F
$$

ALZ015-024>027-033>036-040>044-062000-
CENTRAL ALABAMA

CITY           SKY/WX    TMP DP  RH WIND       PRES   REMARKS
BIRMINGHAM     MOSUNNY   71  41  33 N14       30.03F
MONTGOMERY     PTSUNNY   74  43  32 N18G25    29.98F
SHELBY CO ARPT PTSUNNY   72  41  32 N9G23     30.00F
MAXWELL AFB    MOSUNNY   74  45  35 N18G24    29.97F
GREENVILLE     PTSUNNY   73  42  32 N13G23    29.98
$$

ALZ019-021-028-029-037-038-045>048-062000-
EAST CENTRAL ALABAMA

CITY           SKY/WX    TMP DP  RH WIND       PRES   REMARKS
ANNISTON       MOSUNNY   71  37  28 N17G26    29.98S
ALEXANDER CITY SUNNY     73  50  45 N12G21    29.97F
AUBURN         PTSUNNY   70  45  40 N17       29.96F
$$

ALZ051>064-062000-
SOUTHWEST ALABAMA

CITY           SKY/WX    TMP DP  RH WIND       PRES   REMARKS
MOBILE         MOSUNNY   73  48  41 NW8G16    30.02F
BROOKLEY FIELD MOSUNNY   73  49  42 NE9       30.02F
EVERGREEN      SUNNY     73  43  33 N13G18    29.99F
$$

ALZ049-050-065>069-062000-
SOUTHEAST ALABAMA

CITY           SKY/WX    TMP DP  RH WIND       PRES   REMARKS
DOTHAN         MOSUNNY   74  41  30 N15G23    29.97S
OZARK          MOSUNNY   75  43  31 NW13G21   29.94F
TROY           MOSUNNY   74  45  35 N15G29    29.96F
EUFAULA        FAIR      74  43  32 NW12G18   29.92F
$$



USA.gov is the U.S. government's official web portal to all federal, state and local government web resources and services.